This is the latest recevied weather packets stored in our database for station/object CQ0XPG-11. If no packets are shown the sender has not sent any weather packets the latest 10 day(s).
| Time | Temp. | Humidity | Pressure | Rain* | Wind** | Luminosity | Snow |
|---|---|---|---|---|---|---|---|
| 1778179102 | 14.44° C | 89% | 1000.2 hPa | 0 mm | - | - | - |
| 1778178764 | 14.44° C | 87% | 1000.1 hPa | 0 mm | - | - | - |
| 1778178160 | 14.44° C | 84% | 999.9 hPa | 0 mm | - | - | - |
| 1778177879 | 15° C | 82% | 999.9 hPa | 0 mm | - | - | - |
| 1778177557 | 15° C | 80% | 999.8 hPa | 0 mm | - | - | - |
| 1778177267 | 15° C | 79% | 999.7 hPa | 0 mm | - | - | - |
| 1778176945 | 15.56° C | 77% | 999.8 hPa | 0 mm | - | - | - |
| 1778176666 | 15.56° C | 77% | 999.6 hPa | 0 mm | - | - | - |
| 1778176350 | 15.56° C | 76% | 999.6 hPa | 0 mm | - | - | - |
| 1778176055 | 15.56° C | 76% | 999.6 hPa | 0 mm | - | - | - |
| 1778175744 | 15.56° C | 75% | 999.5 hPa | 0 mm | - | - | - |
| 1778175444 | 16.11° C | 74% | 999.5 hPa | 0 mm | - | - | - |
| 1778175153 | 16.11° C | 72% | 999.5 hPa | 0 mm | - | - | - |
| 1778174839 | 16.67° C | 69% | 999.3 hPa | 0 mm | - | - | - |
| 1778174525 | 16.67° C | 68% | 999.3 hPa | 0 mm | - | - | - |
| 1778173928 | 17.22° C | 64% | 999.2 hPa | 0 mm | - | - | - |
| 1778173627 | 17.22° C | 62% | 999.2 hPa | 0 mm | - | - | - |
| 1778173312 | 17.78° C | 62% | 999.2 hPa | 0 mm | - | - | - |
| 1778173018 | 17.78° C | 60% | 999.2 hPa | 0 mm | - | - | - |
| 1778172705 | 18.33° C | 59% | 999.1 hPa | 0 mm | - | - | - |
| 1778172421 | 18.33° C | 56% | 999 hPa | 0 mm | - | - | - |
| 1778172099 | 18.89° C | 56% | 999 hPa | 0 mm | - | - | - |
| 1778171819 | 18.89° C | 55% | 998.9 hPa | 0 mm | - | - | - |
| 1778171490 | 18.89° C | 54% | 998.9 hPa | 0 mm | - | - | - |
| 1778171199 | 18.33° C | 53% | 998.9 hPa | 0 mm | - | - | - |
* Rain since midnight (hover to see other rain measurements)
** Current wind speed in m/s (hover to see current wind gust speed)